Regional Weather Roundup
Issued by NWS Spokane, WA

Home | Current Version | Previous Version | Text Only | Print | Product List | Glossary On
Versions: 1 2 3 4 5 6 7 8 9 10 11 12 13 14 15 16 17 18 19 20 21 22 23 24 25 26 27 28 29 30 31 32 33 34 35 36 37 38 39 40 41 42 43 44 45 46 47 48 49 50
000
NZUS01 KOTX 280505
RWROTX
EASTERN WASHINGTON/NORTHERN IDAHO ROUNDUP
NATIONAL WEATHER SERVICE, SPOKANE WA
1000 PM PDT WED MAY 27 2015

Note: "fair" indicated few or no clouds below 12,000 feet with no
significant weather and/or obstructions to visibility.

...NORTHEAST WASHINGTON AND NORTHERN IDAHO PANHANDLE...

CITY           SKY/WX    TMP DP  RH WIND       PRES   REMARKS
SPOKANE INTL   PTCLDY    65  48  54 SW7       29.99R
SPOKANE DOWNTO CLEAR     61  49  64 N3        29.99R
COEUR D ALENE  CLEAR     61  48  63 CALM      29.99R
DEER PARK      CLEAR     53  50  89 CALM      29.99R
SANDPOINT      CLEAR     55  52  88 CALM      29.99R
BONNERS FERRY  MOCLDY    63  48  59 CALM      29.97R

...SOUTHEAST WASHINGTON AND SOUTHERN IDAHO PANHANDLE...

CITY           SKY/WX    TMP DP  RH WIND       PRES   REMARKS
WALLA WALLA    CLEAR     64  50  60 E10       29.98R
PULLMAN/MOSCOW PTCLDY    55  50  83 CALM      30.04R
LEWISTON       PTCLDY    60  50  69 CALM      29.99R
LOWELL           N/A     54  51  90 CALM      30.05R

...COLUMBIA BASIN...

CITY           SKY/WX    TMP DP  RH WIND       PRES   REMARKS
EPHRATA        CLEAR     65  53  65 SW5       29.95R
MOSES LAKE     PTCLDY    68  52  56 S7        29.96R
TRI CITIES     CLEAR     72  51  47 SE3       29.95R
HERMISTON      CLEAR     66  50  56 SE6       29.94R
PENDLETON      CLEAR     59  48  67 E10       29.98R

...EAST SLOPES CASCADES...

CITY           SKY/WX    TMP DP  RH WIND       PRES   REMARKS
THE DALLES     CLOUDY    73  53  49 NW10      29.95R
YAKIMA         MOCLDY    69  51  52 W8        29.98R
ELLENSBURG     CLEAR     66  51  58 NW10      29.99R
WENATCHEE      CLEAR     70  48  45 N5        29.96R
OMAK           MOCLDY    69  49  48 SW3       29.93R

...SOUTHERN BRITISH COLUMBIA...

CITY           SKY/WX    TMP DP  RH WIND       PRES   REMARKS

...WESTERN MONTANA...

CITY           SKY/WX    TMP DP  RH WIND       PRES   REMARKS
MISSOULA       CLOUDY    57  45  64 S7        30.04R

...NEIGHBORING CITIES...

CITY           SKY/WX    TMP DP  RH WIND       PRES   REMARKS
SEATTLE        CLEAR     67  53  61 N7        30.04R



USA.gov is the U.S. government's official web portal to all federal, state and local government web resources and services.